Weather History for Bennington, VT

Change the Weather History Date:

Thursday, February 21, 2013

  Actual Average Record
Temperature  
Mean Temperature 21 °F 26 °F  
Max Temperature 23 °F 36 °F 47 °F (2014)
Min Temperature 18 °F 17 °F 29 °F (2014)
Degree Days  
Heating Degree Days 44 39  
Month to date heating degree days 876 857  
Since 1 July heating degree days 4564 4988  
Cooling Degree Days 0 0  
Month to date cooling degree days 0 0  
Year to date cooling degree days 0 0  
Moisture  
Dew Point 9 °F    
Average Humidity 60    
Maximum Humidity 68    
Minimum Humidity 52    
Precipitation  
Precipitation T in 0.08 in 1.09 in (2014)
Month to date precipitation 0.74 1.57  
Year to date precipitation 2.19 4.32  
Sea Level Pressure  
Sea Level Pressure 30.02 in    
Wind  
Wind Speed 9 mph (West)    
Max Wind Speed 17 mph    
Max Gust Speed 25 mph    
Visibility 9 miles    
Events Snow    
T = Trace of Precipitation, MM = Missing Value Source: NWS Daily Summary

Daily Weather History Graph

Daily Weather History Graph

Search for Another Location

Airport:

Trip Planner

Search our weather history database for the weather conditions in past years. The results will help you decide how hot, cold, wet, or windy it might be!

Date:

Astronomy

Feb. 21, 2013 Rise Set
Actual Time 6:41 AM EST 5:32 PM EST
Civil Twilight 6:12 AM EST 6:01 PM EST
Nautical Twilight 5:39 AM EST 6:34 PM EST
Astronomical Twilight 5:06 AM EST 7:07 PM EST
Moon 1:41 PM EST (2/21) 3:47 AM EST (2/21)
Length of Visible Light 11h 48m
Length of Day
10h 51m
Waxing Gibbous, 83% of the Moon is Illuminated
Feb 21
Waxing Gibbous
Feb 25
Full
Mar 4
Last Quarter
Mar 11
New
Mar 19
First Quarter

Hourly Weather History & Observations

Time (EST) Temp. Windchill Dew Point Humidity Pressure Visibility Wind Dir Wind Speed Gust Speed Precip Events Conditions
12:54 AM 23.0 °F - 12.0 °F 63% 29.87 in 10.0 mi North - - N/A   Overcast
1:54 AM 21.9 °F 13.4 °F 12.0 °F 66% 29.87 in 10.0 mi West 6.9 mph 19.6 mph N/A   Overcast
2:36 AM 21.2 °F 9.5 °F 12.2 °F 68% 29.82 in 4.0 mi WSW 11.5 mph 17.3 mph 0.00 in Snow Light Snow
2:54 AM 21.0 °F 11.4 °F 14.0 °F 74% 29.86 in 4.0 mi WSW 8.1 mph - 0.00 in Snow Light Snow
3:19 AM 19.4 °F 8.6 °F 12.2 °F 74% 29.81 in 10.0 mi WSW 9.2 mph - 0.00 in   Overcast
3:54 AM 19.9 °F 11.1 °F 12.0 °F 71% 29.85 in 10.0 mi West 6.9 mph 16.1 mph 0.00 in   Overcast
4:54 AM 19.0 °F 13.9 °F 10.0 °F 68% 29.86 in 10.0 mi SW 3.5 mph - N/A   Mostly Cloudy
5:54 AM 19.0 °F 8.2 °F 8.1 °F 62% 29.88 in 10.0 mi West 9.2 mph 20.7 mph N/A   Scattered Clouds
6:54 AM 19.0 °F 11.1 °F 7.0 °F 59% 29.90 in 10.0 mi Variable 5.8 mph 18.4 mph N/A   Overcast
7:54 AM 19.0 °F 9.0 °F 6.1 °F 57% 29.93 in 10.0 mi WNW 8.1 mph 17.3 mph 0.00 in   Overcast
8:10 AM 19.4 °F 7.2 °F 5.0 °F 54% 29.89 in 7.0 mi WNW 11.5 mph 17.3 mph 0.00 in Snow Light Snow
8:21 AM 19.4 °F 6.0 °F 6.8 °F 58% 29.89 in 9.0 mi West 13.8 mph 18.4 mph 0.00 in   Overcast
8:54 AM 18.0 °F 6.1 °F 5.0 °F 57% 29.94 in 10.0 mi West 10.4 mph 18.4 mph 0.00 in   Overcast
9:54 AM 18.0 °F 6.9 °F 5.0 °F 57% 29.97 in 10.0 mi WNW 9.2 mph 18.4 mph N/A   Overcast
10:54 AM 19.0 °F 6.1 °F 6.1 °F 57% 29.99 in 10.0 mi West 12.7 mph 20.7 mph N/A   Overcast
11:54 AM 19.9 °F 7.3 °F 6.1 °F 55% 30.00 in 10.0 mi West 12.7 mph 21.9 mph N/A   Overcast
12:54 PM 21.0 °F 8.6 °F 7.0 °F 55% 30.00 in 10.0 mi West 12.7 mph 19.6 mph N/A   Overcast
1:54 PM 21.9 °F 10.4 °F 7.0 °F 53% 30.01 in 10.0 mi WNW 11.5 mph 21.9 mph N/A   Overcast
2:54 PM 21.9 °F 10.4 °F 9.0 °F 58% 30.02 in 10.0 mi WSW 11.5 mph 17.3 mph N/A   Overcast
3:54 PM 21.0 °F 8.6 °F 8.1 °F 57% 30.06 in 10.0 mi West 12.7 mph - N/A   Overcast
4:54 PM 21.0 °F 10.6 °F 9.0 °F 60% 30.10 in 10.0 mi West 9.2 mph - N/A   Overcast
5:54 PM 21.0 °F 11.4 °F 9.0 °F 60% 30.15 in 10.0 mi West 8.1 mph - N/A   Overcast
6:54 PM 23.0 °F 14.7 °F 10.0 °F 58% 30.19 in 10.0 mi NW 6.9 mph - N/A   Overcast
7:17 PM 21.2 °F 10.9 °F 10.4 °F 63% 30.15 in 10.0 mi NW 9.2 mph - N/A   Overcast
7:54 PM 21.9 °F 14.5 °F 10.9 °F 63% 30.21 in 10.0 mi WNW 5.8 mph - N/A   Overcast
8:54 PM 21.0 °F 8.1 °F 12.0 °F 68% 30.25 in 10.0 mi West 13.8 mph 19.6 mph N/A   Overcast
9:54 PM 19.9 °F 11.1 °F 10.9 °F 68% 30.30 in 10.0 mi West 6.9 mph - N/A   Overcast
10:54 PM 19.0 °F 6.8 °F 10.0 °F 68% 30.36 in 10.0 mi West 11.5 mph - N/A   Overcast
11:54 PM 19.0 °F - 10.0 °F 68% 30.38 in 10.0 mi Calm Calm - N/A   Overcast